Tracking 35237 objects as of 6-Sep-2026
HD Live streaming from Space Station
objects crossing your sky now

NOAA 16 DEB

Track NOAA 16 DEB now!
10-day predictions


NORAD ID: 41058
Int'l Code: 2000-055R
Launch date: September 21, 2000
Source: United States (US)
Launch site: AIR FORCE WESTERN TEST RANGE (AFWTR)

Note: This is SATELLITE DEBRIS
Your satellite tracking list
Your tracking list is empty




NASA's NSSDC Master Catalog

Two Line Element Set (TLE):
1 41058U 00055R   26249.46168565  .00000542  00000-0  31212-3 0  9995
2 41058  98.5980 243.5742 0021780 275.1646  84.7042 14.13106590554419
Source of the keplerian elements: AFSPC